TimePDT,TemperatureF,Dew PointF,Humidity,Sea Level PressureIn,VisibilityMPH,Wind Direction,Wind SpeedMPH,Gust SpeedMPH,PrecipitationIn,Events,Conditions,WindDirDegrees,DateUTC
12:55 AM,55.0,39.0,55,30.05,10.0,Variable,5.8,-,N/A,,Clear,0,2013-09-19 07:55:00
1:55 AM,54.0,39.0,57,30.06,10.0,WNW,5.8,-,N/A,,Clear,290,2013-09-19 08:55:00
2:55 AM,53.1,39.0,59,30.06,10.0,WNW,9.2,-,N/A,,Clear,300,2013-09-19 09:55:00
3:55 AM,51.1,39.0,63,30.07,10.0,NNW,8.1,-,N/A,,Clear,330,2013-09-19 10:55:00
4:55 AM,50.0,39.0,66,30.07,10.0,NW,9.2,-,N/A,,Clear,310,2013-09-19 11:55:00
5:55 AM,48.9,39.0,69,30.07,10.0,WNW,9.2,-,N/A,,Clear,300,2013-09-19 12:55:00
6:55 AM,48.0,39.0,71,30.09,10.0,NNW,10.4,-,N/A,,Clear,330,2013-09-19 13:55:00
7:55 AM,48.9,39.0,69,30.10,10.0,NW,5.8,-,N/A,,Clear,320,2013-09-19 14:55:00
8:55 AM,52.0,39.0,61,30.10,10.0,WNW,6.9,-,N/A,,Clear,290,2013-09-19 15:55:00
9:55 AM,54.0,39.9,59,30.10,10.0,Calm,Calm,-,N/A,,Clear,0,2013-09-19 16:55:00
10:55 AM,59.0,39.0,48,30.09,10.0,Calm,Calm,-,N/A,,Clear,0,2013-09-19 17:55:00
11:55 AM,62.1,39.9,44,30.06,10.0,Calm,Calm,-,N/A,,Clear,0,2013-09-19 18:55:00
12:55 PM,66.9,41.0,39,30.04,10.0,SE,8.1,-,N/A,,Clear,130,2013-09-19 19:55:00
1:55 PM,69.1,39.9,35,30.01,10.0,ESE,8.1,-,N/A,,Clear,120,2013-09-19 20:55:00
2:55 PM,71.1,39.9,32,29.99,10.0,SE,12.7,-,N/A,,Clear,130,2013-09-19 21:55:00
3:55 PM,72.0,39.0,30,29.96,10.0,SE,10.4,-,N/A,,Clear,140,2013-09-19 22:55:00
4:55 PM,71.1,37.9,30,29.94,10.0,SSE,9.2,-,N/A,,Clear,150,2013-09-19 23:55:00
5:55 PM,70.0,43.0,38,29.92,10.0,East,3.5,-,N/A,,Clear,100,2013-09-20 00:55:00
6:55 PM,66.0,42.1,42,29.91,10.0,ESE,5.8,-,N/A,,Clear,110,2013-09-20 01:55:00
7:55 PM,61.0,42.1,50,29.91,10.0,NE,3.5,-,N/A,,Clear,50,2013-09-20 02:55:00
8:55 PM,62.1,39.0,43,29.92,10.0,NNW,5.8,-,N/A,,Clear,330,2013-09-20 03:55:00
9:55 PM,57.9,41.0,53,29.91,10.0,WNW,3.5,-,N/A,,Clear,300,2013-09-20 04:55:00
10:55 PM,57.9,39.0,49,29.90,10.0,WNW,5.8,-,N/A,,Clear,300,2013-09-20 05:55:00
11:55 PM,55.9,39.0,53,29.89,10.0,WNW,6.9,-,N/A,,Clear,300,2013-09-20 06:55:00